Weather History for Watsonville, CA

Change the Weather History Date:

Saturday, January 11, 2014

  Actual Average Record
Temperature  
Mean Temperature 51 °F 50 °F  
Max Temperature 60 °F 61 °F 71 °F (2009)
Min Temperature 41 °F 39 °F 31 °F (2007)
Degree Days  
Heating Degree Days 14    
Month to date heating degree days 130  
Since 1 July heating degree days 1260  
Cooling Degree Days 0    
Month to date cooling degree days 0  
Year to date cooling degree days 0  
Moisture  
Dew Point 47 °F    
Average Humidity 77    
Maximum Humidity 100    
Minimum Humidity 53    
Precipitation  
Precipitation 0.00 in - 1.56 in (1979)
Month to date precipitation 0.00  
Year to date precipitation 0.00  
Since 1 July precipitation 1.07  
Sea Level Pressure  
Sea Level Pressure 30.24 in    
Wind  
Wind Speed 3 mph (WSW)    
Max Wind Speed 13 mph    
Max Gust Speed 25 mph    
Visibility 7 miles    
Events Fog    
T = Trace of Precipitation, MM = Missing Value Source: NWS Daily Summary

Daily Weather History Graph

Daily Weather History Graph

Search for Another Location

Airport:

Trip Planner

Search our weather history database for the weather conditions in past years. The results will help you decide how hot, cold, wet, or windy it might be!

Date:

Astronomy

Jan. 11, 2014 Rise Set
Actual Time 7:20 AM PST 5:10 PM PST
Civil Twilight 6:51 AM PST 5:38 PM PST
Nautical Twilight 6:19 AM PST 6:10 PM PST
Astronomical Twilight 5:48 AM PST 6:42 PM PST
Moon 1:57 PM PST (1/11) 3:31 AM PST (1/11)
Length of Visible Light 10h 47m
Length of Day
9h 50m
Waxing Gibbous, 84% of the Moon is Illuminated
Jan 11
Waxing Gibbous
Jan 15
Full
Jan 23
Last Quarter
Jan 30
New
Feb 6
First Quarter

Hourly Weather History & Observations

Time (PST) Temp. Windchill Dew Point Humidity Pressure Visibility Wind Dir Wind Speed Gust Speed Precip Events Conditions
12:53 AM 45.0 °F - 41.0 °F 86% 30.19 in 10.0 mi Calm Calm - N/A   Clear
1:53 AM 45.0 °F 41.8 °F 41.0 °F 86% 30.20 in 10.0 mi WNW 5.8 mph - N/A   Clear
2:53 AM 42.1 °F - 39.9 °F 92% 30.21 in 10.0 mi Calm Calm - N/A   Clear
3:53 AM 43.0 °F 41.3 °F 39.9 °F 89% 30.21 in 10.0 mi NW 3.5 mph - N/A   Clear
4:53 AM 44.1 °F 42.5 °F 42.1 °F 93% 30.21 in 10.0 mi WNW 3.5 mph - N/A   Clear
5:53 AM 43.0 °F - 39.9 °F 89% 30.22 in 10.0 mi Calm Calm - N/A   Clear
6:53 AM 43.0 °F 40.3 °F 39.9 °F 89% 30.23 in 10.0 mi WNW 4.6 mph - N/A   Clear
7:53 AM 44.1 °F 41.5 °F 41.0 °F 89% 30.26 in 10.0 mi NNW 4.6 mph - N/A   Clear
8:53 AM 46.9 °F - 43.0 °F 86% 30.27 in 10.0 mi Calm Calm - N/A   Clear
9:53 AM 52.0 °F - 45.0 °F 77% 30.26 in 10.0 mi East 3.5 mph - N/A   Clear
10:53 AM 55.0 °F - 44.1 °F 67% 30.25 in 10.0 mi Calm Calm - N/A   Clear
11:53 AM 59.0 °F - 42.1 °F 53% 30.23 in 10.0 mi West 4.6 mph - N/A   Clear
12:53 PM 59.0 °F - 44.1 °F 58% 30.20 in 10.0 mi WSW 9.2 mph - N/A   Clear
1:53 PM 57.9 °F - 46.0 °F 65% 30.18 in 10.0 mi SE 6.9 mph - N/A   Partly Cloudy
2:53 PM 55.0 °F - 50.0 °F 83% 30.19 in 10.0 mi South 5.8 mph - N/A   Overcast
3:02 PM 55.4 °F - 50.0 °F 82% 30.19 in 10.0 mi South 6.9 mph - N/A   Overcast
3:36 PM 55.4 °F - 51.8 °F 88% 30.20 in 10.0 mi South 8.1 mph - N/A   Overcast
3:43 PM 55.4 °F - 51.8 °F 88% 30.20 in 10.0 mi South 6.9 mph - N/A   Overcast
3:53 PM 55.0 °F - 51.1 °F 86% 30.21 in 10.0 mi South 6.9 mph - N/A   Overcast
4:05 PM 55.4 °F - 50.0 °F 82% 30.21 in 10.0 mi Variable 4.6 mph - N/A   Overcast
4:21 PM 55.4 °F - 51.8 °F 88% 30.22 in 10.0 mi Calm Calm - N/A   Overcast
4:53 PM 55.0 °F - 51.1 °F 86% 30.21 in 10.0 mi ENE 4.6 mph - N/A   Overcast
5:53 PM 54.0 °F - 51.1 °F 90% 30.22 in 10.0 mi ENE 3.5 mph - N/A   Overcast
6:16 PM 53.6 °F - 51.8 °F 94% 30.21 in 10.0 mi ENE 4.6 mph - N/A   Overcast
6:53 PM 54.0 °F - 51.1 °F 90% 30.24 in 10.0 mi Calm Calm - N/A   Overcast
7:28 PM 51.8 °F - 50.0 °F 94% 30.25 in 10.0 mi East 3.5 mph - N/A   Mostly Cloudy
7:35 PM 51.8 °F - 48.2 °F 88% 30.24 in 10.0 mi East 4.6 mph - N/A   Scattered Clouds
7:53 PM 51.1 °F - 48.9 °F 92% 30.25 in 9.0 mi Calm Calm - N/A   Partly Cloudy
8:19 PM 51.8 °F - 48.2 °F 88% 30.25 in 1.8 mi Calm Calm - N/A   Mostly Cloudy
8:29 PM 50.0 °F - 48.2 °F 94% 30.26 in 2.5 mi WSW 4.6 mph - N/A   Scattered Clouds
8:31 PM 50.0 °F - 48.2 °F 94% 30.26 in 5.0 mi WSW 4.6 mph - N/A   Mostly Cloudy
8:40 PM 50.0 °F - 48.2 °F 94% 30.26 in 6.0 mi WSW 3.5 mph - N/A   Mostly Cloudy
8:53 PM 51.1 °F - 50.0 °F 96% 30.26 in 2.5 mi Calm Calm - N/A   Overcast
8:56 PM 51.8 °F - 50.0 °F 94% 30.26 in 1.2 mi WSW 3.5 mph - N/A   Overcast
9:04 PM 51.8 °F - 50.0 °F 94% 30.27 in 0.2 mi West 4.6 mph - N/A Fog Fog
9:18 PM 50.0 °F - 48.2 °F 94% 30.29 in 0.8 mi WNW 3.5 mph - N/A   Mist
9:21 PM 50.0 °F - 48.2 °F 94% 30.29 in 1.8 mi West 4.6 mph - N/A   Overcast
9:24 PM 50.0 °F - 48.2 °F 94% 30.29 in 3.0 mi West 4.6 mph - N/A   Overcast
9:36 PM 48.2 °F - 48.2 °F 100% 30.29 in 5.0 mi WSW 5.8 mph - N/A   Scattered Clouds
9:43 PM 48.2 °F - 48.2 °F 100% 30.29 in 2.5 mi West 4.6 mph - N/A   Mostly Cloudy
9:46 PM 48.2 °F - 48.2 °F 100% 30.29 in 1.0 mi WSW 4.6 mph - N/A   Mist
9:53 PM 48.9 °F - 48.0 °F 97% 30.30 in 0.2 mi Calm Calm - N/A Fog Fog
10:53 PM 46.0 °F 44.8 °F 45.0 °F 96% 30.30 in 0.2 mi West 3.5 mph - N/A Fog Fog
11:01 PM 46.4 °F 45.2 °F 44.6 °F 93% 30.29 in 1.2 mi NW 3.5 mph - N/A   Mostly Cloudy
11:03 PM 46.4 °F 45.2 °F 44.6 °F 93% 30.29 in 3.0 mi NW 3.5 mph - N/A   Mostly Cloudy
11:12 PM 44.6 °F - 44.6 °F 100% 30.29 in 10.0 mi Calm Calm - N/A   Scattered Clouds
11:53 PM 43.0 °F - 42.1 °F 97% 30.29 in 10.0 mi Calm Calm - N/A   Clear